Bismarck, ND

4:19 PM CST on December 15, 2017 (GMT -0600)
Bismarck Municipal

Weather History for KBIS - April, 2013

Change the Weather History Date:

Saturday, April 20, 2013

  Actual Average Record
Temperature  
Mean Temperature 25 °F 46 °F  
Max Temperature 34 °F 60 °F 90 °F (1900)
Min Temperature 15 °F 32 °F 15 °F (2013)
Degree Days  
Heating Degree Days 40 19  
Month to date heating degree days 673 467  
Since 1 July heating degree days 8289 7986  
Cooling Degree Days 0 0  
Month to date cooling degree days 0 0  
Year to date cooling degree days 0 0  
Moisture  
Dew Point 20 °F    
Average Humidity 73    
Maximum Humidity 92    
Minimum Humidity 53    
Precipitation  
Precipitation T in 0.04 in 1.00 in (1921)
Month to date precipitation 1.35 0.75  
Year to date precipitation 2.77 2.56  
Snow  
Snow T in 0.10 in 4.60 in (1899)
Month to date snowfall 21.5 3.4  
Since 1 July snowfall 57.0 50.0  
Snow Depth 5.00 in    
Sea Level Pressure  
Sea Level Pressure 30.13 in    
Wind  
Wind Speed 14 mph (SE)    
Max Wind Speed 24 mph    
Max Gust Speed 28 mph    
Visibility 10 miles    
Events      
T = Trace of Precipitation, MM = Missing Value Source: NWS Daily Summary

Daily Weather History Graph

Daily Weather History Graph

Search for Another Location

Airport or City:

Trip Planner

Search our weather history database for the weather conditions in past years. The results will help you decide how hot, cold, wet, or windy it might be!

Date:

Astronomy

Apr. 20, 2013 Rise Set
Actual Time 6:46 AM CDT 8:38 PM CDT
Civil Twilight 6:13 AM CDT 9:10 PM CDT
Nautical Twilight 5:34 AM CDT 9:50 PM CDT
Astronomical Twilight 4:50 AM CDT 10:34 PM CDT
Moon 3:05 PM CDT (4/20) 3:56 AM CDT (4/20)
Length of Visible Light 14h 57m
Length of Day
13h 52m
Waxing Gibbous, 71% of the Moon is Illuminated
Apr 20
Waxing Gibbous
Apr 25
Full
May 2
Last Quarter
May 9
New
May 17
First Quarter

Hourly Weather History & Observations

Time (CDT) Temp. Windchill Dew Point Humidity Pressure Visibility Wind Dir Wind Speed Gust Speed Precip Events Conditions
12:52 AM 19.0 °F - 12.0 °F 74% 30.16 in 10.0 mi Calm Calm - N/A   Clear
1:52 AM 19.0 °F 11.1 °F 12.0 °F 74% 30.16 in 10.0 mi ESE 5.8 mph - N/A   Clear
2:52 AM 17.1 °F 10.0 °F 10.9 °F 77% 30.17 in 10.0 mi East 4.6 mph - N/A   Clear
3:52 AM 15.1 °F 9.4 °F 10.0 °F 80% 30.18 in 10.0 mi ENE 3.5 mph - N/A   Clear
4:52 AM 17.1 °F 8.7 °F 10.9 °F 77% 30.18 in 10.0 mi East 5.8 mph - N/A   Clear
5:52 AM 18.0 °F 11.1 °F 12.0 °F 78% 30.18 in 10.0 mi ESE 4.6 mph - N/A   Clear
6:52 AM 19.0 °F 10.0 °F 14.0 °F 81% 30.17 in 10.0 mi East 6.9 mph - N/A   Partly Cloudy
7:52 AM 19.9 °F 11.1 °F 14.0 °F 78% 30.19 in 10.0 mi SE 6.9 mph - N/A   Mostly Cloudy
8:52 AM 24.1 °F 13.1 °F 15.1 °F 69% 30.19 in 10.0 mi SE 11.5 mph - N/A   Overcast
9:52 AM 27.0 °F 15.6 °F 16.0 °F 63% 30.19 in 10.0 mi SSE 13.8 mph - N/A   Mostly Cloudy
10:52 AM 28.9 °F 16.9 °F 18.0 °F 64% 30.18 in 10.0 mi SSE 17.3 mph - N/A   Overcast
11:52 AM 30.9 °F 18.4 °F 16.0 °F 54% 30.18 in 10.0 mi SSE 20.7 mph - N/A   Overcast
12:52 PM 30.9 °F 18.7 °F 18.0 °F 59% 30.17 in 10.0 mi SSE 19.6 mph - N/A   Overcast
1:52 PM 30.9 °F 19.1 °F 19.0 °F 61% 30.14 in 10.0 mi SSE 18.4 mph 25.3 mph N/A   Overcast
2:52 PM 33.1 °F 21.2 °F 21.0 °F 61% 30.13 in 10.0 mi SSE 20.7 mph - N/A   Overcast
3:52 PM 33.1 °F 21.5 °F 23.0 °F 66% 30.12 in 10.0 mi SSE 19.6 mph - 0.00 in   Overcast
4:47 PM 33.8 °F 23.2 °F 24.8 °F 70% 30.03 in 10.0 mi SSE 17.3 mph - N/A   Overcast
4:52 PM 33.1 °F 21.2 °F 25.0 °F 72% 30.11 in 10.0 mi SSE 20.7 mph 25.3 mph N/A   Overcast
5:52 PM 34.0 °F 23.0 °F 26.1 °F 73% 30.09 in 10.0 mi SSE 18.4 mph - N/A   Overcast
6:52 PM 33.1 °F 21.2 °F 28.0 °F 82% 30.08 in 10.0 mi SSE 20.7 mph - N/A   Overcast
7:12 PM 33.1 °F 21.5 °F 28.0 °F 82% 30.00 in 10.0 mi SSE 19.6 mph - N/A   Overcast
7:52 PM 33.1 °F 22.2 °F 28.9 °F 85% 30.07 in 10.0 mi SSE 17.3 mph - N/A   Overcast
8:52 PM 32.0 °F 20.1 °F 28.0 °F 85% 30.08 in 10.0 mi South 19.6 mph - N/A   Overcast
9:52 PM 32.0 °F 20.5 °F 28.9 °F 88% 30.08 in 10.0 mi South 18.4 mph - N/A   Overcast
10:52 PM 32.0 °F 20.8 °F 28.0 °F 85% 30.07 in 10.0 mi South 17.3 mph - N/A   Overcast
11:52 PM 30.9 °F 20.7 °F 28.0 °F 89% 30.04 in 10.0 mi South 13.8 mph - N/A   Overcast